Terminal Aerodrome Forecast
Issued by NWS Sterling, VA

Home | Current Version | Previous Version | Text Only | Print | Product List | Glossary On
Versions: 1 2 3 4 5 6 7 8 9 10 11 12 13 14 15 16 17 18 19 20 21 22 23
000
FTUS41 KLWX 211500 AAA
TAFBWI
TAF AMD
KBWI 211511Z 2115/2218 VRB03KT P6SM FEW060 SCT100
     FM211800 28005KT P6SM BKN060
     FM212000 32005KT 5SM -SHRA BKN035
     FM220600 35007KT P6SM OVC015
     FM221200 33013KT P6SM OVC015=

USA.gov is the U.S. government's official web portal to all federal, state and local government web resources and services.